Location: ?
(35.6144°N, 139.6873°E)
Time: 14:11:32
(UTC+00:00)

ISS - Visible Passes

Search period start: 22 July 2024 00:00
Search period end: 01 August 2024 00:00
Orbit: 409 x 423 km, 51.6° (Epoch: 22 July)

Date Brightness Start Highest point End Pass type
(mag) Time Alt. Az. Time Alt. Az. Time Alt. Az.
22 Jul -0.9 11:47:40 10° N 11:48:28 11° NNE 11:49:17 10° NE visible
22 Jul -0.4 13:22:30 10° NW 13:22:44 12° NW 13:22:44 12° NW visible
23 Jul -1.4 12:34:09 10° NNW 12:35:49 23° N 12:35:49 23° N visible
24 Jul -1.8 11:45:54 10° NNW 11:48:30 21° NNE 11:48:54 20° NE visible
25 Jul -1.3 10:57:50 10° N 10:59:42 14° NNE 11:01:34 10° ENE visible
25 Jul -1.4 12:33:28 10° NW 12:34:52 23° NW 12:34:52 23° NW visible
26 Jul -3.4 11:44:53 10° NW 11:47:59 53° NNE 11:47:59 53° NNE visible
27 Jul -2.5 10:56:25 10° NNW 10:59:24 30° NE 11:01:08 19° E visible
27 Jul -0.9 12:33:22 10° WNW 12:34:00 14° W 12:34:00 14° W visible
28 Jul -2.9 11:44:15 10° WNW 11:47:11 41° WSW 11:47:11 41° WSW visible
29 Jul -3.9 10:55:24 10° NW 10:58:42 87° SW 11:00:23 27° SE visible
30 Jul -1.2 11:44:39 10° W 11:46:18 13° SW 11:46:30 13° SW visible
31 Jul -2.0 10:54:53 10° WNW 10:57:39 25° SW 10:59:48 13° S visible
